This demonstration page uses our WeatherBlox Daily Observations layout. Learn more.

Left ArrowRight Arrow

40.97296, -117.73568

Hourly Observations for December 3, 2022

Temp ( °F °C ) Dew Point ( °F °C ) Humidity (%) Winds ( mph kmh ) Pressure ( in mb ) Visibility ( mi km ) Precip ( " mm )
12:56 am 00:56 Clear 20 -6.7 12 -11.1 71 71 ENE 13 20 30.20 1023 10 16 0.00 0.00
1:56 am 01:56 Clear 20 -6.7 12 -11.1 71 71 NE 14 22 30.19 1023 10 16 0.00 0.00
2:56 am 02:56 Clear 19 -7.2 12 -11.1 74 74 ENE 13 20 30.20 1023 10 16 0.00 0.00
3:56 am 03:56 Clear 19 -7.2 11 -11.7 70 70 ENE 15 24 30.18 1022 10 16 0.00 0.00
4:56 am 04:56 Clear 18 -7.8 11 -11.7 73 73 ENE 15 24 30.20 1023 10 16 0.00 0.00
5:56 am 05:56 Clear 19 -7.2 10 -12.2 67 67 ENE 14 22 30.22 1023 10 16 0.00 0.00
6:56 am 06:56 Clear 18 -7.8 10 -12.2 71 71 ENE 13 20 30.23 1024 10 16 0.00 0.00
7:56 am 07:56 Sunny 21 -6.1 11 -11.7 64 64 ENE 14 22 30.24 1024 10 16 0.00 0.00
8:56 am 08:56 Sunny 23 -5 12 -11.1 62 62 NE 14 22 30.25 1024 10 16 0.00 0.00
9:56 am 09:56 Sunny 27 -2.8 15 -9.4 60 60 ENE 14 22 30.24 1024 10 16 0.00 0.00
10:56 am 10:56 Sunny 32 0 18 -7.8 56 56 ENE 15 24 30.21 1023 10 16 0.00 0.00
11:56 am 11:56 Partly Cloudy 34 1.1 20 -6.7 56 56 NE 15 24 30.18 1022 10 16 0.00 0.00
12:56 pm 12:56 Sunny 36 2.2 20 -6.7 52 52 ENE 16 26 30.16 1021 10 16 0.00 0.00
1:56 pm 13:56 Mostly Cloudy 36 2.2 21 -6.1 54 54 ENE 12 19 30.14 1021 10 16 0.00 0.00
2:56 pm 14:56 Mostly Sunny 37 2.8 23 -5 56 56 NE 13 20 30.12 1020 10 16 0.00 0.00
3:56 pm 15:56 Cloudy 37 2.8 24 -4.4 59 59 NNE 10 17 30.11 1020 10 16 0.00 0.00
4:56 pm 16:56 Cloudy 37 2.8 25 -3.9 61 61 NE 12 19 30.09 1019 10 16 0.00 0.00
5:56 pm 17:56 Cloudy 37 2.8 25 -3.9 61 61 NE 12 19 30.11 1020 10 16 0.00 0.00
6:56 pm 18:56 Cloudy 36 2.2 24 -4.4 62 62 NE 13 20 30.09 1019 10 16 0.00 0.00
7:56 pm 19:56 Mostly Cloudy 37 2.8 24 -4.4 59 59 ENE 9 15 30.07 1018 10 16 0.00 0.00
8:56 pm 20:56 Cloudy 36 2.2 25 -3.9 64 64 ENE 10 17 30.06 1018 10 16 0.00 0.00
9:56 pm 21:56 Cloudy with Light Snow 36 2.2 28 -2.2 73 73 ENE 7 11 30.09 1019 4 6 0.01 0.13
10:03 pm 22:03 Cloudy with Light Snow 35 1.7 28 -2.2 75 75 E 6 9 30.12 1020 3 4 0.01 0.13
10:13 pm 22:13 Cloudy with Light Snow 34 1.1 29 -1.7 82 82 E 7 11 30.12 1020 2 3 0.01 0.13
10:25 pm 22:25 Cloudy with Light Snow 34 1.1 30 -1.1 85 85 ENE 8 13 30.12 1020 2 3 0.01 0.25
10:31 pm 22:31 Cloudy with Light Snow 34 1.1 30 -1.1 85 85 ENE 8 13 30.12 1020 3 5 0.01 0.25
10:56 pm 22:56 Cloudy with Light Snow 35 1.7 30 -1.1 82 82 ENE 10 17 30.05 1018 6 10 0.02 0.51
11:56 pm 23:56 Cloudy with Light Rain 34 1.1 31 -0.6 88 88 ENE 12 19 30.01 1016 10 16 0.01 0.13

Powered by AerisWeather